Location: Tierz
(42.1336°N, 0.3549°W)
Time: 11:39:50
(UTC+00:00)

NOAA 11 - Pass Details

Date: 29 October 2020
Orbit: 833 x 849 km, 98.4° (Epoch: 29 November)

Event Time Altitude Azimuth Distance (km) Brightness Sun altitude
Rises 17:17:44 0° 147° (SSE) 3,382 7.1 -4.2°
Reaches altitude 10° 17:20:10 10° 142° (SE) 2,449 6.4 -4.7°
Maximum altitude 17:25:19 46° 70° (ENE) 1,109 4.5 -5.6°
Drops below altitude 10° 17:30:30 10° 359° (N) 2,456 6.5 -6.5°
Sets 17:32:56 0° 353° (N) 3,392 7.3 -7.0°
